Location: PACMO
(41.3967°N, 90.3760°W)
Time: 00:45:58
(UTC-05:00)

NOAA 19 - Visible Passes

Search period start: 01 August 2015 00:00
Search period end: 11 August 2015 00:00
Orbit: 842 x 863 km, 99.0° (Epoch: 31 July)

Date Brightness Start Highest point End Pass type
(mag) Time Alt. Az. Time Alt. Az. Time Alt. Az.
01 Aug 6.4 02:55:21 10° NNE 03:00:19 35° E 03:02:30 26° SE visible
01 Aug 6.1 04:36:09 10° N 04:41:01 32° WNW 04:44:32 16° WSW visible
02 Aug 6.7 02:44:21 10° NE 02:48:58 28° E 02:51:02 22° SE visible
02 Aug 5.8 04:24:42 10° N 04:29:50 40° WNW 04:33:04 20° SW visible
03 Aug 7.0 02:33:27 10° NE 02:37:35 22° E 02:39:34 19° ESE visible
03 Aug 5.6 04:13:18 10° N 04:18:38 50° WNW 04:21:36 25° SW visible
04 Aug 7.2 02:22:41 10° NE 02:26:10 17° E 02:28:05 15° ESE visible
04 Aug 5.3 04:01:57 10° N 04:07:24 63° WNW 04:10:08 30° SW visible
05 Aug 7.5 02:12:12 10° ENE 02:14:43 14° E 02:16:38 12° ESE visible
05 Aug 5.2 03:50:39 10° NNE 03:56:10 78° WNW 03:58:40 34° SSW visible
06 Aug 7.7 02:02:43 10° E 02:03:15 10° E 02:04:13 10° E visible
06 Aug 5.2 03:39:22 10° NNE 03:44:55 84° ESE 03:47:12 38° S visible
06 Aug 7.1 05:22:00 10° NNW 05:25:01 15° WNW 05:27:47 10° W visible
07 Aug 5.4 03:28:08 10° NNE 03:33:39 68° ESE 03:35:44 39° S visible
07 Aug 6.9 05:10:11 10° NNW 05:13:53 18° WNW 05:17:24 10° WSW visible
08 Aug 5.7 03:16:57 10° NNE 03:22:21 54° E 03:24:15 37° SSE visible
08 Aug 6.6 04:58:32 10° NNW 05:02:45 22° WNW 05:06:18 12° WSW visible
09 Aug 6.1 03:05:49 10° NNE 03:11:02 42° E 03:12:47 33° SE visible
09 Aug 6.4 04:46:58 10° N 04:51:35 27° WNW 04:54:49 16° WSW visible
10 Aug 6.4 02:54:44 10° NNE 02:59:42 34° E 03:01:18 29° SE visible
10 Aug 6.1 04:35:29 10° N 04:40:25 33° WNW 04:43:21 20° WSW visible
